Main page
METAR-TAF:

METAR-TAF

Airports :

Payam International Airport

Karaj, Iran

latitude: 35-46-34N, longitude: 050-49-36E, elevation: 1271 m

Current weather observation

The report was made 1 hour and 0 minutes ago, at 19:00 UTC
Calm wind
Temperature 26°C
Humidity 24%
Pressure 1008 hPa
Visibility 10 km or more
no clouds below 1500 m and no cumulonimbus

METAR: OIIP 251900Z 00000KT CAVOK 26/04 Q1007 A2976

Time: 00:30 (20:00 UTC)

Forecast

The report was made 2 hours and 30 minutes ago, at 17:30 UTC
Forecast valid from 25 at 18 UTC to 26 at 03 UTC
Wind 8 kt from the West/Northwest
Visibility: 7000 m

TAF: OIIP 251730Z 2518/2603 30008KT 7000 NSC

Weather observations and forecasts of more than 4000 airports (METAR and TAF reports).

The available stations are represented by yellow and red dots on the map.

Hover mouse over dot to see the name of the station.

Then click to see weather observations and forecasts.

To change the map : click on the green buttons with a black cross to zoom in, on the green button with a dash to zoom out, or on the green arrows for adjacent maps.


METAR-TAF: